Regional Weather Roundup
Issued by NWS

Home | Current Version | Previous Version | Graphics & Text | Print | Product List | Glossary On
Versions: 1 2 3 4 5 6 7 8 9 10 11 12 13 14 15 16 17 18 19 20 21 22 23 24 25 26 27 28 29 30 31 32 33 34 35 36 37 38 39 40 41 42 43 44 45 46 47 48 49 50
000
ASUS43 KFSD 300510
RWRSD

WEATHER ROUNDUP FOR SOUTH DAKOTA
NATIONAL WEATHER SERVICE SIOUX FALLS SD
1200 AM CDT SAT JUL 30 2016

NOTE: "FAIR" INDICATES FEW OR NO CLOUDS BELOW 12,000 FEET WITH NO
SIGNIFICANT WEATHER AND/OR OBSTRUCTIONS TO VISIBILITY.


SDZ001>005-009-010-012>017-300600-
NORTHWEST AND NORTH CENTRAL SOUTH DAKOTA

CITY           SKY/WX    TMP DP  RH WIND       PRES   REMARKS
BUFFALO          N/A     69  55  60 S6        29.94S
FAITH            N/A     65  57  75 SE10      29.98F
MOBRIDGE       CLEAR     69  55  60 SE8       29.96S
$$

SDZ012>016-024>037-041>051-057-063-072>074-300600-
SOUTHWEST AND SOUTH CENTRAL SOUTH DAKOTA

CITY           SKY/WX    TMP DP  RH WIND       PRES   REMARKS
RAPID CTY ARPT CLEAR     60  54  80 CALM      30.02S
PIERRE         CLEAR     69  56  62 SE12      29.98S
CUSTER         CLEAR     57  52  83 NW7       30.16F
ELLSWORTH AFB  CLEAR     67  57  69 SW6       30.01F
PHILIP         CLEAR     70  61  73 SE8       29.98S
PINE RIDGE     CLEAR     61  56  83 CALM      30.03R
WINNER         FAIR      67  60  78 SE10      30.02S
$$

SDZ004>011-016>023-039-040-300600-
NORTHEAST SOUTH DAKOTA

CITY           SKY/WX    TMP DP  RH WIND       PRES   REMARKS
ABERDEEN       CLOUDY    66  59  78 SE8       30.01R
WATERTOWN      CLEAR     64  56  75 SE7       30.05S
BROOKINGS      CLEAR     63  57  81 SE7       30.06S
SISSETON         N/A     64  60  87 S6        30.02S
$$

SDZ017-020-022-023-036>040-048>070-300600-
SOUTHEAST SOUTH DAKOTA

CITY           SKY/WX    TMP DP  RH WIND       PRES   REMARKS
SIOUX FALLS    CLOUDY    63  55  75 E5        30.06R
HURON          MOCLDY    68  55  63 SE10      30.02S
CHAMBERLAIN    CLEAR     67  58  71 SE8       30.02S
MITCHELL       CLEAR     65  56  72 SE8       30.04S
YANKTON        PTCLDY    64  57  77 NE5       30.04R
$$

ABBREVIATIONS USED IN REMARKS
   TC - TEMPERATURE IN CELSIUS
  WCI - WIND CHILL INDEX
   HX - HEAT INDEX
  VSB - VISIBILITY





USA.gov is the U.S. government's official web portal to all federal, state and local government web resources and services.